Location: Gombori
(14.9797°N, 2.9419°W)
Time: 11:03:09
(UTC+00:00)

Cosmos 2298 Rocket - Visible Passes

Search period start: 01 December 2021 00:00
Search period end: 11 December 2021 00:00
Orbit: 776 x 783 km, 74.0° (Epoch: 30 November)

Date Brightness Start Highest point End Pass type
(mag) Time Alt. Az. Time Alt. Az. Time Alt. Az.
05 Dec6.518:49:40SE18:49:40SE18:38:49NNEvisible
05 Dec 6.6 20:29:51 13° SSW 20:29:51 13° SSW 20:30:32 10° SSW visible
06 Dec 4.7 19:47:23 10° NNW 19:52:33 53° WSW 19:57:42 10° S visible
07 Dec 3.9 19:13:44 10° NNW 19:19:04 85° E 19:24:23 10° SSE visible
08 Dec 4.2 18:40:27 10° N 18:45:33 46° ENE 18:50:37 10° SSE visible
08 Dec 7.1 20:26:07 10° W 20:27:23 11° W 20:28:40 10° WSW visible
09 Dec 5.0 18:07:36 10° NNE 18:11:58 26° ENE 18:16:20 10° SE visible
09 Dec 6.5 19:50:07 10° NW 19:53:59 21° W 19:57:52 10° SSW visible
10 Dec 5.5 19:15:42 10° NW 19:20:33 37° W 19:25:25 10° SSW visible
